This is the latest recevied weather packets stored in our database for station/object W0AKY-13. If no packets are shown the sender has not sent any weather packets the latest 10 day(s).
| Time | Temp. | Humidity | Pressure | Rain* | Wind** | Luminosity | Snow |
|---|---|---|---|---|---|---|---|
| 1777947877 | 16.11° C | 41% | 1008.4 hPa | 0 mm | - | 0 W/m² | - |
| 1777947574 | 16.11° C | 41% | 1008.2 hPa | 0 mm | - | 0 W/m² | - |
| 1777947271 | 16.67° C | 39% | 1007.9 hPa | 0 mm | - | 0 W/m² | - |
| 1777946966 | 16.67° C | 40% | 1007.7 hPa | 0 mm | - | 0 W/m² | - |
| 1777946662 | 16.67° C | 38% | 1007.8 hPa | 0 mm | - | 0 W/m² | - |
| 1777946359 | 17.22° C | 37% | 1007.6 hPa | 0 mm | - | 0 W/m² | - |
| 1777946056 | 17.78° C | 37% | 1007.4 hPa | 0 mm | - | 0 W/m² | - |
| 1777945754 | 17.78° C | 37% | 1007.3 hPa | 0 mm | - | 0 W/m² | - |
| 1777945450 | 17.78° C | 36% | 1007 hPa | 0 mm | - | 0 W/m² | - |
| 1777945147 | 17.78° C | 36% | 1006.8 hPa | 0 mm | - | 0 W/m² | - |
| 1777944844 | 18.33° C | 36% | 1006.6 hPa | 0 mm | - | 0 W/m² | - |
| 1777944542 | 18.89° C | 35% | 1006.8 hPa | 0 mm | - | 1 W/m² | - |
| 1777944240 | 18.89° C | 36% | 1006.7 hPa | 0 mm | - | 1 W/m² | - |
| 1777943936 | 19.44° C | 36% | 1006.6 hPa | 0 mm | - | 2 W/m² | - |
| 1777943633 | 20° C | 35% | 1006.5 hPa | 0 mm | - | 4 W/m² | - |
| 1777943329 | 20° C | 35% | 1006.3 hPa | 0 mm | - | 9 W/m² | - |
| 1777943025 | 20° C | 34% | 1006.3 hPa | 0 mm | - | 9 W/m² | - |
| 1777942721 | 20° C | 34% | 1006.3 hPa | 0 mm | - | 8 W/m² | - |
| 1777942418 | 20° C | 35% | 1006.2 hPa | 0 mm | - | 8 W/m² | - |
| 1777942116 | 20.56° C | 34% | 1006.3 hPa | 0 mm | - | 10 W/m² | - |
| 1777941812 | 20.56° C | 34% | 1006.3 hPa | 0 mm | - | 11 W/m² | - |
| 1777941509 | 20.56° C | 33% | 1006.2 hPa | 0 mm | - | 15 W/m² | - |
| 1777941206 | 21.11° C | 33% | 1006 hPa | 0 mm | - | 25 W/m² | - |
| 1777940902 | 21.67° C | 32% | 1005.8 hPa | 0 mm | - | 46 W/m² | - |
| 1777940599 | 21.67° C | 32% | 1005.7 hPa | 0 mm | - | 35 W/m² | - |
* Rain latest hour (hover to see other rain measurements)
** Current wind speed in m/s (hover to see current wind gust speed)